ASIASAT 9

Last updated on Tue Oct 08 2024 00:02:40 GMT+0000 (Coordinated Universal Time)

1 42942U 17057A 24281.48354853 -.00000349 00000+0 00000+0 0 9993 2 42942 0.0138 216.3028 0002230 341.7081 114.7991 1.00270427 25662
UTC large
Height (km)
Speed (km/s)
/
Latitude / Longitude
Inclination (degrees)
Orbital Period (minutes)
Azimuth
Elevation
Range (km)
Doppler Factor

Next 0 passes for location: London (51.5072 / 0.1276)

Sorry there are no passes over London.